Time,TemperatureF,DewpointF,PressureIn,WindDirection,WindDirectionDegrees,WindSpeedMPH,WindSpeedGustMPH,Humidity,HourlyPrecipIn,Conditions,Clouds,dailyrainin,SoftwareType,DateUTC
2013-01-05 00:02:00,41.4,37.4,30.02,SE,135,0.0,0.0,86,0.00,,,0.00,WUHU21623XXSP,2013-01-05 08:02:00,
2013-01-05 00:07:00,41.4,37.4,30.03,SE,135,0.0,0.0,86,0.00,,,0.00,WUHU21623XXSP,2013-01-05 08:07:00,
2013-01-05 00:13:00,41.4,37.4,30.02,SE,135,0.0,0.0,86,0.00,,,0.00,WUHU21623XXSP,2013-01-05 08:13:00,
2013-01-05 00:18:00,41.4,37.4,30.02,SE,135,0.0,0.0,86,0.00,,,0.00,WUHU21623XXSP,2013-01-05 08:18:00,
2013-01-05 00:23:00,41.4,37.4,30.02,SE,135,0.0,0.0,86,0.00,,,0.00,WUHU21623XXSP,2013-01-05 08:23:00,
2013-01-05 00:28:00,41.5,37.9,30.02,SE,135,0.0,0.0,87,0.00,,,0.00,WUHU21623XXSP,2013-01-05 08:28:00,
2013-01-05 00:34:00,41.4,37.7,30.02,SE,135,0.0,0.0,87,0.00,,,0.00,WUHU21623XXSP,2013-01-05 08:34:00,
2013-01-05 00:39:00,41.5,37.6,30.01,SE,135,0.0,0.0,86,0.00,,,0.00,WUHU21623XXSP,2013-01-05 08:39:00,
2013-01-05 00:44:00,41.5,37.6,30.01,SE,135,0.0,0.0,86,0.00,,,0.00,WUHU21623XXSP,2013-01-05 08:44:00,
2013-01-05 00:49:00,41.7,37.8,30.02,SE,135,0.0,0.0,86,0.00,,,0.00,WUHU21623XXSP,2013-01-05 08:49:00,
2013-01-05 00:55:00,41.7,37.8,30.01,SE,135,0.0,0.0,86,0.00,,,0.00,WUHU21623XXSP,2013-01-05 08:55:00,
2013-01-05 01:00:00,41.7,37.8,30.01,SE,135,0.0,0.0,86,0.00,,,0.00,WUHU21623XXSP,2013-01-05 09:00:00,
2013-01-05 01:05:00,41.5,37.6,30.00,SE,135,0.0,0.0,86,0.00,,,0.00,WUHU21623XXSP,2013-01-05 09:05:00,
2013-01-05 01:10:00,41.5,37.6,30.00,SE,135,0.0,0.0,86,0.00,,,0.00,WUHU21623XXSP,2013-01-05 09:10:00,
2013-01-05 01:15:00,41.5,37.6,30.00,SE,135,0.0,0.0,86,0.00,,,0.00,WUHU21623XXSP,2013-01-05 09:15:00,
2013-01-05 01:21:00,41.5,37.6,30.00,SE,135,0.0,0.0,86,0.00,,,0.00,WUHU21623XXSP,2013-01-05 09:21:00,
2013-01-05 01:26:00,41.7,37.8,30.00,SE,135,0.0,0.0,86,0.00,,,0.00,WUHU21623XXSP,2013-01-05 09:26:00,
2013-01-05 01:31:00,41.7,37.8,30.00,SE,135,0.0,0.0,86,0.00,,,0.00,WUHU21623XXSP,2013-01-05 09:31:00,
2013-01-05 01:36:00,41.5,37.6,30.00,SE,135,0.0,0.0,86,0.00,,,0.00,WUHU21623XXSP,2013-01-05 09:36:00,
2013-01-05 01:42:00,41.5,37.9,30.01,SE,135,0.0,0.0,87,0.00,,,0.00,WUHU21623XXSP,2013-01-05 09:42:00,
2013-01-05 01:47:00,41.7,38.1,30.01,SE,135,0.0,0.0,87,0.00,,,0.00,WUHU21623XXSP,2013-01-05 09:47:00,
2013-01-05 01:52:00,41.7,38.1,30.02,SE,135,0.0,0.0,87,0.00,,,0.00,WUHU21623XXSP,2013-01-05 09:52:00,
2013-01-05 01:57:00,41.7,38.1,30.02,SE,135,0.0,0.0,87,0.00,,,0.00,WUHU21623XXSP,2013-01-05 09:57:00,
2013-01-05 02:03:00,41.5,37.9,30.02,SE,135,0.0,0.0,87,0.00,,,0.00,WUHU21623XXSP,2013-01-05 10:03:00,
2013-01-05 02:08:00,41.5,37.9,30.02,SE,135,0.0,0.0,87,0.00,,,0.00,WUHU21623XXSP,2013-01-05 10:08:00,
2013-01-05 02:13:00,41.5,37.9,30.02,SE,135,0.0,0.0,87,0.00,,,0.00,WUHU21623XXSP,2013-01-05 10:13:00,
2013-01-05 02:18:00,41.4,37.7,30.02,SE,135,0.0,0.0,87,0.00,,,0.00,WUHU21623XXSP,2013-01-05 10:18:00,
2013-01-05 02:24:00,41.4,37.7,30.03,SE,135,0.0,0.0,87,0.00,,,0.00,WUHU21623XXSP,2013-01-05 10:24:00,
2013-01-05 02:29:00,41.2,37.6,30.02,SE,135,0.0,0.0,87,0.00,,,0.00,WUHU21623XXSP,2013-01-05 10:29:00,
2013-01-05 02:34:00,41.2,37.9,30.02,SE,135,0.0,0.0,88,0.00,,,0.00,WUHU21623XXSP,2013-01-05 10:34:00,
2013-01-05 02:39:00,41.2,37.9,30.03,SE,135,0.0,0.0,88,0.00,,,0.00,WUHU21623XXSP,2013-01-05 10:39:00,
2013-01-05 02:44:00,41.2,37.9,30.02,SE,135,0.0,0.0,88,0.00,,,0.00,WUHU21623XXSP,2013-01-05 10:44:00,
2013-01-05 02:50:00,41.0,37.7,30.03,SE,135,0.0,0.0,88,0.00,,,0.00,WUHU21623XXSP,2013-01-05 10:50:00,
2013-01-05 02:55:00,41.0,37.7,30.02,SE,135,0.0,0.0,88,0.00,,,0.00,WUHU21623XXSP,2013-01-05 10:55:00,
2013-01-05 03:00:00,41.0,37.7,30.02,SE,135,0.0,0.0,88,0.00,,,0.00,WUHU21623XXSP,2013-01-05 11:00:00,
2013-01-05 03:05:00,40.8,37.5,30.02,SE,135,0.0,0.0,88,0.00,,,0.00,WUHU21623XXSP,2013-01-05 11:05:00,
2013-01-05 03:11:00,40.8,37.5,30.02,SE,135,0.0,0.0,88,0.00,,,0.00,WUHU21623XXSP,2013-01-05 11:11:00,
2013-01-05 03:16:00,40.6,37.0,30.02,SE,135,0.0,0.0,87,0.00,,,0.00,WUHU21623XXSP,2013-01-05 11:16:00,
2013-01-05 03:21:00,40.8,37.5,30.03,SE,135,0.0,0.0,88,0.00,,,0.00,WUHU21623XXSP,2013-01-05 11:21:00,
2013-01-05 03:26:00,40.8,37.5,30.03,SE,135,0.0,0.0,88,0.00,,,0.00,WUHU21623XXSP,2013-01-05 11:26:00,
2013-01-05 03:32:00,41.0,37.7,30.03,SE,135,0.0,0.0,88,0.00,,,0.00,WUHU21623XXSP,2013-01-05 11:32:00,
2013-01-05 03:37:00,40.8,37.5,30.03,SE,135,0.0,0.0,88,0.00,,,0.00,WUHU21623XXSP,2013-01-05 11:37:00,
2013-01-05 03:42:00,40.8,37.5,30.03,SE,135,0.0,0.0,88,0.00,,,0.00,WUHU21623XXSP,2013-01-05 11:42:00,
2013-01-05 03:47:00,40.8,37.5,30.03,SE,135,0.0,0.0,88,0.00,,,0.00,WUHU21623XXSP,2013-01-05 11:47:00,
2013-01-05 03:52:00,40.8,37.5,30.03,SE,135,0.0,0.0,88,0.00,,,0.00,WUHU21623XXSP,2013-01-05 11:52:00,
2013-01-05 03:58:00,40.8,37.5,30.03,SE,135,0.0,0.0,88,0.00,,,0.00,WUHU21623XXSP,2013-01-05 11:58:00,
2013-01-05 04:03:00,41.0,37.7,30.03,SE,135,0.0,0.0,88,0.00,,,0.00,WUHU21623XXSP,2013-01-05 12:03:00,
2013-01-05 04:08:00,40.8,37.2,30.02,SE,135,0.0,0.0,87,0.00,,,0.00,WUHU21623XXSP,2013-01-05 12:08:00,
2013-01-05 04:13:00,40.8,37.2,30.02,SE,135,0.0,0.0,87,0.00,,,0.00,WUHU21623XXSP,2013-01-05 12:13:00,
2013-01-05 04:19:00,40.8,37.2,30.02,SE,135,0.0,0.0,87,0.00,,,0.00,WUHU21623XXSP,2013-01-05 12:19:00,
2013-01-05 04:24:00,40.8,37.5,30.03,SE,135,0.0,0.0,88,0.00,,,0.00,WUHU21623XXSP,2013-01-05 12:24:00,
2013-01-05 04:29:00,40.8,37.5,30.02,SE,135,0.0,0.0,88,0.00,,,0.00,WUHU21623XXSP,2013-01-05 12:29:00,
2013-01-05 04:34:00,41.0,37.7,30.02,SE,135,0.0,0.0,88,0.00,,,0.00,WUHU21623XXSP,2013-01-05 12:34:00,
2013-01-05 04:40:00,41.0,37.7,30.02,SE,135,0.0,0.0,88,0.00,,,0.00,WUHU21623XXSP,2013-01-05 12:40:00,
2013-01-05 04:45:00,40.8,37.2,30.01,SE,135,0.0,0.0,87,0.00,,,0.00,WUHU21623XXSP,2013-01-05 12:45:00,
2013-01-05 04:50:00,41.0,37.4,30.01,SE,135,0.0,0.0,87,0.00,,,0.00,WUHU21623XXSP,2013-01-05 12:50:00,
2013-01-05 04:55:00,41.0,37.4,30.01,SE,135,0.0,0.0,87,0.00,,,0.00,WUHU21623XXSP,2013-01-05 12:55:00,
2013-01-05 05:00:00,41.0,37.4,30.01,SE,135,0.0,0.0,87,0.00,,,0.00,WUHU21623XXSP,2013-01-05 13:00:00,
2013-01-05 05:06:00,41.2,37.6,30.00,SE,135,0.0,0.0,87,0.00,,,0.00,WUHU21623XXSP,2013-01-05 13:06:00,
2013-01-05 05:11:00,41.2,37.6,30.00,SE,135,0.0,0.0,87,0.00,,,0.00,WUHU21623XXSP,2013-01-05 13:11:00,
2013-01-05 05:16:00,41.2,37.6,30.01,SE,135,0.0,0.0,87,0.00,,,0.00,WUHU21623XXSP,2013-01-05 13:16:00,
2013-01-05 05:21:00,41.4,37.7,30.02,SE,135,0.0,0.0,87,0.00,,,0.00,WUHU21623XXSP,2013-01-05 13:21:00,
2013-01-05 05:27:00,41.2,37.6,30.02,SE,135,0.0,0.0,87,0.00,,,0.00,WUHU21623XXSP,2013-01-05 13:27:00,
2013-01-05 05:32:00,41.4,37.7,30.02,SE,135,0.0,0.0,87,0.00,,,0.00,WUHU21623XXSP,2013-01-05 13:32:00,
2013-01-05 05:37:00,41.4,37.7,30.02,SE,135,0.0,0.0,87,0.00,,,0.00,WUHU21623XXSP,2013-01-05 13:37:00,
2013-01-05 05:42:00,41.2,37.6,30.03,SE,135,0.0,0.0,87,0.00,,,0.00,WUHU21623XXSP,2013-01-05 13:42:00,
2013-01-05 05:48:00,41.2,37.6,30.03,SE,135,0.0,0.0,87,0.00,,,0.00,WUHU21623XXSP,2013-01-05 13:48:00,
2013-01-05 05:53:00,41.2,37.6,30.02,SE,135,0.0,0.0,87,0.00,,,0.00,WUHU21623XXSP,2013-01-05 13:53:00,
2013-01-05 05:58:00,41.2,37.6,30.03,SE,135,0.0,0.0,87,0.00,,,0.00,WUHU21623XXSP,2013-01-05 13:58:00,
2013-01-05 06:03:00,41.2,37.6,30.02,SE,135,0.0,0.0,87,0.00,,,0.00,WUHU21623XXSP,2013-01-05 14:03:00,
2013-01-05 06:08:00,41.0,37.4,30.03,SE,135,0.0,0.0,87,0.00,,,0.00,WUHU21623XXSP,2013-01-05 14:08:00,
2013-01-05 06:14:00,41.0,37.4,30.02,SE,135,0.0,0.0,87,0.00,,,0.00,WUHU21623XXSP,2013-01-05 14:14:00,
2013-01-05 06:19:00,41.2,37.6,30.03,SE,135,0.0,0.0,87,0.00,,,0.00,WUHU21623XXSP,2013-01-05 14:19:00,
2013-01-05 06:24:00,41.2,37.6,30.03,SE,135,0.0,0.0,87,0.00,,,0.00,WUHU21623XXSP,2013-01-05 14:24:00,
2013-01-05 06:29:00,41.2,37.6,30.03,SE,135,0.0,0.0,87,0.00,,,0.00,WUHU21623XXSP,2013-01-05 14:29:00,
2013-01-05 06:35:00,41.2,37.6,30.03,SE,135,0.0,0.0,87,0.00,,,0.00,WUHU21623XXSP,2013-01-05 14:35:00,
2013-01-05 06:40:00,41.4,37.7,30.02,SE,135,0.0,0.0,87,0.00,,,0.00,WUHU21623XXSP,2013-01-05 14:40:00,
2013-01-05 06:45:00,41.2,37.6,30.02,SE,135,0.0,0.0,87,0.00,,,0.00,WUHU21623XXSP,2013-01-05 14:45:00,
2013-01-05 06:50:00,41.2,37.6,30.02,SE,135,0.0,0.0,87,0.00,,,0.00,WUHU21623XXSP,2013-01-05 14:50:00,
2013-01-05 06:56:00,41.2,37.6,30.02,SE,135,0.0,0.0,87,0.00,,,0.00,WUHU21623XXSP,2013-01-05 14:56:00,
2013-01-05 07:01:00,41.5,37.9,30.03,SE,135,0.0,0.0,87,0.00,,,0.00,WUHU21623XXSP,2013-01-05 15:01:00,
2013-01-05 07:06:00,41.5,37.9,30.04,SE,135,0.0,0.0,87,0.00,,,0.00,WUHU21623XXSP,2013-01-05 15:06:00,
2013-01-05 07:11:00,41.5,37.9,30.03,SE,135,0.0,0.0,87,0.00,,,0.00,WUHU21623XXSP,2013-01-05 15:11:00,
2013-01-05 07:16:00,41.5,37.9,30.04,SE,135,0.0,0.0,87,0.00,,,0.00,WUHU21623XXSP,2013-01-05 15:16:00,
2013-01-05 07:22:00,41.7,38.1,30.04,SE,135,0.0,0.0,87,0.00,,,0.00,WUHU21623XXSP,2013-01-05 15:22:00,
2013-01-05 07:27:00,41.5,37.9,30.04,SE,135,0.0,0.0,87,0.00,,,0.00,WUHU21623XXSP,2013-01-05 15:27:00,
2013-01-05 07:32:00,41.5,37.9,30.04,SE,135,0.0,0.0,87,0.00,,,0.00,WUHU21623XXSP,2013-01-05 15:32:00,
2013-01-05 07:37:00,41.5,37.9,30.05,SE,135,0.0,0.0,87,0.00,,,0.00,WUHU21623XXSP,2013-01-05 15:37:00,
2013-01-05 07:43:00,41.4,37.7,30.04,SE,135,0.0,0.0,87,0.00,,,0.00,WUHU21623XXSP,2013-01-05 15:43:00,
2013-01-05 07:48:00,41.2,37.6,30.04,SE,135,0.0,0.0,87,0.00,,,0.00,WUHU21623XXSP,2013-01-05 15:48:00,
2013-01-05 07:53:00,41.2,37.6,30.04,SE,135,0.0,0.0,87,0.00,,,0.00,WUHU21623XXSP,2013-01-05 15:53:00,
2013-01-05 07:58:00,41.2,37.3,30.04,SE,135,0.0,0.0,86,0.00,,,0.00,WUHU21623XXSP,2013-01-05 15:58:00,
2013-01-05 08:04:00,41.4,37.4,30.04,SE,135,0.0,0.0,86,0.00,,,0.00,WUHU21623XXSP,2013-01-05 16:04:00,
2013-01-05 08:09:00,41.4,37.4,30.04,ESE,112,0.0,0.0,86,0.00,,,0.00,WUHU21623XXSP,2013-01-05 16:09:00,
2013-01-05 08:14:00,41.4,37.4,30.05,ESE,112,0.0,0.0,86,0.00,,,0.00,WUHU21623XXSP,2013-01-05 16:14:00,
2013-01-05 08:19:00,41.5,37.6,30.05,ESE,112,0.0,0.0,86,0.00,,,0.00,WUHU21623XXSP,2013-01-05 16:19:00,
2013-01-05 08:25:00,41.7,37.8,30.05,ESE,112,0.0,0.0,86,0.00,,,0.00,WUHU21623XXSP,2013-01-05 16:25:00,
2013-01-05 08:30:00,41.7,37.8,30.04,ESE,112,0.0,0.0,86,0.00,,,0.00,WUHU21623XXSP,2013-01-05 16:30:00,
2013-01-05 08:35:00,41.7,37.8,30.05,SW,225,0.0,0.0,86,0.00,,,0.00,WUHU21623XXSP,2013-01-05 16:35:00,
2013-01-05 08:40:00,41.7,37.5,30.05,SE,135,0.0,0.0,85,0.00,,,0.00,WUHU21623XXSP,2013-01-05 16:40:00,
2013-01-05 08:45:00,41.7,37.5,30.04,ESE,112,0.0,0.0,85,0.00,,,0.00,WUHU21623XXSP,2013-01-05 16:45:00,
2013-01-05 08:51:00,41.9,37.4,30.05,ESE,112,0.0,0.0,84,0.00,,,0.00,WUHU21623XXSP,2013-01-05 16:51:00,
2013-01-05 08:56:00,41.9,37.4,30.05,WSW,247,0.0,0.0,84,0.00,,,0.00,WUHU21623XXSP,2013-01-05 16:56:00,
2013-01-05 09:01:00,42.1,37.5,30.05,WSW,247,0.0,0.0,84,0.00,,,0.00,WUHU21623XXSP,2013-01-05 17:01:00,
2013-01-05 09:06:00,42.1,37.5,30.05,WSW,247,0.0,0.0,84,0.00,,,0.00,WUHU21623XXSP,2013-01-05 17:06:00,
2013-01-05 09:12:00,42.1,37.5,30.05,WSW,247,0.0,0.0,84,0.00,,,0.00,WUHU21623XXSP,2013-01-05 17:12:00,
2013-01-05 09:17:00,42.4,37.3,30.05,WSW,247,0.0,0.0,82,0.00,,,0.00,WUHU21623XXSP,2013-01-05 17:17:00,
2013-01-05 09:22:00,42.4,37.3,30.05,WSW,247,0.0,0.0,82,0.00,,,0.00,WUHU21623XXSP,2013-01-05 17:22:00,
2013-01-05 09:27:00,42.6,37.5,30.05,South,180,0.0,0.0,82,0.00,,,0.00,WUHU21623XXSP,2013-01-05 17:27:00,
2013-01-05 09:33:00,42.6,37.8,30.06,South,180,0.0,0.0,83,0.00,,,0.00,WUHU21623XXSP,2013-01-05 17:33:00,
2013-01-05 09:38:00,42.6,37.8,30.06,South,180,0.0,0.0,83,0.00,,,0.00,WUHU21623XXSP,2013-01-05 17:38:00,
2013-01-05 09:43:00,42.6,37.8,30.06,South,180,0.0,0.0,83,0.00,,,0.00,WUHU21623XXSP,2013-01-05 17:43:00,
2013-01-05 09:48:00,43.0,38.1,30.06,South,180,0.0,0.0,83,0.00,,,0.00,WUHU21623XXSP,2013-01-05 17:48:00,
2013-01-05 09:53:00,42.8,38.3,30.07,South,180,0.0,0.0,84,0.00,,,0.00,WUHU21623XXSP,2013-01-05 17:53:00,
2013-01-05 09:59:00,43.0,38.4,30.07,SE,135,0.0,0.0,84,0.00,,,0.00,WUHU21623XXSP,2013-01-05 17:59:00,
2013-01-05 10:04:00,42.8,38.3,30.07,SE,135,0.0,0.0,84,0.00,,,0.00,WUHU21623XXSP,2013-01-05 18:04:00,
2013-01-05 10:09:00,43.0,38.4,30.07,SE,135,0.0,0.0,84,0.00,,,0.00,WUHU21623XXSP,2013-01-05 18:09:00,
2013-01-05 10:14:00,43.2,38.6,30.07,SE,135,0.0,0.0,84,0.00,,,0.00,WUHU21623XXSP,2013-01-05 18:14:00,
2013-01-05 10:20:00,43.3,38.8,30.08,SE,135,0.0,0.0,84,0.00,,,0.00,WUHU21623XXSP,2013-01-05 18:20:00,
2013-01-05 10:25:00,43.5,39.0,30.07,SE,135,0.0,0.0,84,0.00,,,0.00,WUHU21623XXSP,2013-01-05 18:25:00,
2013-01-05 10:30:00,43.5,39.0,30.07,SE,135,0.0,0.0,84,0.00,,,0.00,WUHU21623XXSP,2013-01-05 18:30:00,
2013-01-05 10:35:00,43.5,38.7,30.07,East,90,3.1,3.1,83,0.00,,,0.00,WUHU21623XXSP,2013-01-05 18:35:00,
2013-01-05 10:41:00,43.7,38.6,30.07,SE,135,0.0,3.1,82,0.00,,,0.00,WUHU21623XXSP,2013-01-05 18:41:00,
2013-01-05 10:46:00,43.9,38.7,30.07,SSE,157,0.0,0.0,82,0.00,,,0.00,WUHU21623XXSP,2013-01-05 18:46:00,
2013-01-05 10:51:00,44.1,38.6,30.07,SE,135,0.0,3.6,81,0.00,,,0.00,WUHU21623XXSP,2013-01-05 18:51:00,
2013-01-05 10:56:00,44.1,38.6,30.07,SE,135,1.8,3.6,81,0.00,,,0.00,WUHU21623XXSP,2013-01-05 18:56:00,
2013-01-05 11:01:00,44.1,38.0,30.06,SE,135,6.0,6.5,79,0.00,,,0.00,WUHU21623XXSP,2013-01-05 19:01:00,
2013-01-05 11:07:00,44.1,37.6,30.06,SSE,157,1.3,6.9,78,0.00,,,0.00,WUHU21623XXSP,2013-01-05 19:07:00,
2013-01-05 11:12:00,44.1,38.0,30.06,ESE,112,2.9,6.9,79,0.00,,,0.00,WUHU21623XXSP,2013-01-05 19:12:00,
2013-01-05 11:17:00,44.1,37.6,30.06,SE,135,0.0,3.6,78,0.00,,,0.00,WUHU21623XXSP,2013-01-05 19:17:00,
2013-01-05 11:22:00,43.9,37.4,30.05,ESE,112,1.6,7.6,78,0.00,,,0.00,WUHU21623XXSP,2013-01-05 19:22:00,
2013-01-05 11:28:00,43.9,37.1,30.05,ESE,112,1.6,7.6,77,0.00,,,0.00,WUHU21623XXSP,2013-01-05 19:28:00,
2013-01-05 11:33:00,43.9,37.1,30.05,ESE,112,0.0,3.4,77,0.00,,,0.00,WUHU21623XXSP,2013-01-05 19:33:00,
2013-01-05 11:38:00,43.9,37.4,30.05,ESE,112,4.7,4.7,78,0.00,,,0.00,WUHU21623XXSP,2013-01-05 19:38:00,
2013-01-05 11:43:00,44.1,37.6,30.05,SE,135,0.0,4.7,78,0.00,,,0.00,WUHU21623XXSP,2013-01-05 19:43:00,
2013-01-05 11:49:00,44.1,37.6,30.04,ESE,112,0.0,4.5,78,0.00,,,0.00,WUHU21623XXSP,2013-01-05 19:49:00,
2013-01-05 11:54:00,44.2,37.8,30.04,SSE,157,7.4,7.4,78,0.00,,,0.00,WUHU21623XXSP,2013-01-05 19:54:00,
2013-01-05 11:59:00,44.2,37.8,30.04,SSE,157,0.0,7.4,78,0.00,,,0.00,WUHU21623XXSP,2013-01-05 19:59:00,
2013-01-05 12:04:00,44.4,38.0,30.04,SSE,157,0.0,6.7,78,0.00,,,0.00,WUHU21623XXSP,2013-01-05 20:04:00,
2013-01-05 12:09:00,44.6,38.5,30.04,ESE,112,0.0,6.7,79,0.00,,,0.00,WUHU21623XXSP,2013-01-05 20:09:00,
2013-01-05 12:15:00,44.6,38.2,30.04,SSE,157,0.0,2.9,78,0.00,,,0.00,WUHU21623XXSP,2013-01-05 20:15:00,
2013-01-05 12:20:00,44.8,38.3,30.03,SSE,157,0.9,1.8,78,0.00,,,0.00,WUHU21623XXSP,2013-01-05 20:20:00,
2013-01-05 12:25:00,44.8,38.3,30.04,East,90,0.0,6.3,78,0.00,,,0.00,WUHU21623XXSP,2013-01-05 20:25:00,
2013-01-05 12:30:00,44.8,38.3,30.03,ESE,112,7.2,7.2,78,0.00,,,0.00,WUHU21623XXSP,2013-01-05 20:30:00,
2013-01-05 12:36:00,44.8,38.3,30.04,ESE,112,0.0,7.4,78,0.00,,,0.00,WUHU21623XXSP,2013-01-05 20:36:00,
2013-01-05 12:41:00,45.0,38.5,30.03,SE,135,0.0,7.4,78,0.00,,,0.00,WUHU21623XXSP,2013-01-05 20:41:00,
2013-01-05 12:46:00,45.0,38.5,30.03,SE,135,0.0,6.7,78,0.00,,,0.00,WUHU21623XXSP,2013-01-05 20:46:00,
2013-01-05 12:51:00,44.8,38.3,30.03,SE,135,1.8,5.6,78,0.00,,,0.00,WUHU21623XXSP,2013-01-05 20:51:00,
2013-01-05 12:57:00,45.0,38.5,30.03,SSE,157,0.0,5.6,78,0.00,,,0.00,WUHU21623XXSP,2013-01-05 20:57:00,
2013-01-05 13:02:00,45.0,38.5,30.03,SE,135,4.5,4.5,78,0.00,,,0.00,WUHU21623XXSP,2013-01-05 21:02:00,
2013-01-05 13:07:00,45.0,38.5,30.03,SSE,157,0.0,4.5,78,0.00,,,0.00,WUHU21623XXSP,2013-01-05 21:07:00,
2013-01-05 13:12:00,45.0,38.5,30.02,SSE,157,5.4,6.7,78,0.00,,,0.00,WUHU21623XXSP,2013-01-05 21:12:00,
2013-01-05 13:18:00,45.0,38.5,30.02,SE,135,0.0,6.7,78,0.00,,,0.00,WUHU21623XXSP,2013-01-05 21:18:00,
2013-01-05 13:23:00,45.1,38.7,30.02,ESE,112,2.0,2.5,78,0.00,,,0.00,WUHU21623XXSP,2013-01-05 21:23:00,
2013-01-05 13:28:00,45.1,38.7,30.01,ESE,112,0.0,2.0,78,0.00,,,0.00,WUHU21623XXSP,2013-01-05 21:28:00,
2013-01-05 13:33:00,45.1,38.7,30.01,ESE,112,0.0,2.7,78,0.00,,,0.00,WUHU21623XXSP,2013-01-05 21:33:00,
2013-01-05 13:38:00,45.1,38.7,30.01,East,90,0.0,2.7,78,0.00,,,0.00,WUHU21623XXSP,2013-01-05 21:38:00,
2013-01-05 13:44:00,45.1,38.7,30.00,ESE,112,0.0,0.0,78,0.00,,,0.00,WUHU21623XXSP,2013-01-05 21:44:00,
2013-01-05 13:49:00,45.1,38.4,30.00,SSE,157,1.1,4.9,77,0.00,,,0.00,WUHU21623XXSP,2013-01-05 21:49:00,
2013-01-05 13:54:00,45.1,38.4,30.00,East,90,3.1,3.4,77,0.00,,,0.00,WUHU21623XXSP,2013-01-05 21:54:00,
2013-01-05 13:59:00,45.1,38.4,30.00,SSE,157,0.0,3.1,77,0.00,,,0.00,WUHU21623XXSP,2013-01-05 21:59:00,
2013-01-05 14:05:00,45.1,38.4,30.00,South,180,2.0,2.0,77,0.00,,,0.00,WUHU21623XXSP,2013-01-05 22:05:00,
2013-01-05 14:10:00,45.1,38.4,30.00,SE,135,0.0,2.0,77,0.00,,,0.00,WUHU21623XXSP,2013-01-05 22:10:00,
2013-01-05 14:15:00,45.1,38.4,29.99,East,90,0.0,0.0,77,0.00,,,0.00,WUHU21623XXSP,2013-01-05 22:15:00,
2013-01-05 14:20:00,45.1,38.0,29.99,SE,135,2.2,2.2,76,0.00,,,0.00,WUHU21623XXSP,2013-01-05 22:20:00,
2013-01-05 14:26:00,45.1,38.0,29.99,ESE,112,5.4,5.4,76,0.00,,,0.00,WUHU21623XXSP,2013-01-05 22:26:00,
2013-01-05 14:31:00,45.3,38.2,29.99,ESE,112,1.1,5.4,76,0.00,,,0.00,WUHU21623XXSP,2013-01-05 22:31:00,
2013-01-05 14:36:00,45.3,38.2,30.00,SE,135,0.0,1.1,76,0.00,,,0.00,WUHU21623XXSP,2013-01-05 22:36:00,
2013-01-05 14:41:00,45.5,38.4,29.99,East,90,0.0,0.0,76,0.00,,,0.00,WUHU21623XXSP,2013-01-05 22:41:00,
2013-01-05 14:47:00,45.5,38.0,29.99,SE,135,0.0,0.0,75,0.00,,,0.00,WUHU21623XXSP,2013-01-05 22:47:00,
2013-01-05 14:52:00,45.5,38.0,30.00,SE,135,0.0,0.0,75,0.00,,,0.00,WUHU21623XXSP,2013-01-05 22:52:00,
2013-01-05 14:57:00,45.5,38.0,30.00,SE,135,0.0,0.0,75,0.00,,,0.00,WUHU21623XXSP,2013-01-05 22:57:00,
2013-01-05 15:02:00,45.5,38.0,30.00,SE,135,0.0,0.0,75,0.00,,,0.00,WUHU21623XXSP,2013-01-05 23:02:00,
2013-01-05 15:07:00,45.3,37.9,30.00,SE,135,0.0,0.0,75,0.00,,,0.00,WUHU21623XXSP,2013-01-05 23:07:00,
2013-01-05 15:13:00,45.5,38.4,30.00,SE,135,0.0,0.0,76,0.00,,,0.00,WUHU21623XXSP,2013-01-05 23:13:00,
2013-01-05 15:18:00,45.7,38.6,30.00,SE,135,0.0,0.0,76,0.00,,,0.00,WUHU21623XXSP,2013-01-05 23:18:00,
2013-01-05 15:23:00,45.7,38.6,30.00,SE,135,0.0,0.0,76,0.00,,,0.00,WUHU21623XXSP,2013-01-05 23:23:00,
2013-01-05 15:28:00,45.7,38.6,30.00,SE,135,0.0,0.0,76,0.00,,,0.00,WUHU21623XXSP,2013-01-05 23:28:00,
2013-01-05 15:34:00,45.7,38.6,30.00,ESE,112,0.0,0.0,76,0.00,,,0.00,WUHU21623XXSP,2013-01-05 23:34:00,
2013-01-05 15:39:00,45.7,38.2,30.00,ESE,112,1.1,1.1,75,0.00,,,0.00,WUHU21623XXSP,2013-01-05 23:39:00,
2013-01-05 15:44:00,45.7,38.2,29.99,SE,135,0.0,1.1,75,0.00,,,0.00,WUHU21623XXSP,2013-01-05 23:44:00,
2013-01-05 15:49:00,45.5,37.7,29.99,ESE,112,2.2,2.2,74,0.00,,,0.00,WUHU21623XXSP,2013-01-05 23:49:00,
2013-01-05 15:55:00,45.5,37.7,30.00,SE,135,0.0,2.2,74,0.00,,,0.00,WUHU21623XXSP,2013-01-05 23:55:00,
2013-01-05 16:00:00,45.3,37.2,29.99,SE,135,0.0,0.0,73,0.00,,,0.00,WUHU21623XXSP,2013-01-06 00:00:00,
2013-01-05 16:05:00,45.3,37.2,29.99,SE,135,0.0,0.0,73,0.00,,,0.00,WUHU21623XXSP,2013-01-06 00:05:00,
2013-01-05 16:10:00,45.1,37.0,29.99,SE,135,0.0,0.0,73,0.00,,,0.00,WUHU21623XXSP,2013-01-06 00:10:00,
2013-01-05 16:15:00,45.1,37.0,29.99,SE,135,0.0,0.0,73,0.00,,,0.00,WUHU21623XXSP,2013-01-06 00:15:00,
2013-01-05 16:21:00,45.1,37.0,29.98,ESE,112,0.0,0.0,73,0.00,,,0.00,WUHU21623XXSP,2013-01-06 00:21:00,
2013-01-05 16:26:00,45.1,37.0,29.98,ESE,112,0.0,0.0,73,0.00,,,0.00,WUHU21623XXSP,2013-01-06 00:26:00,
2013-01-05 16:31:00,45.1,37.0,29.98,ESE,112,0.0,0.0,73,0.00,,,0.00,WUHU21623XXSP,2013-01-06 00:31:00,
2013-01-05 16:36:00,45.0,36.8,29.98,ESE,112,0.0,0.0,73,0.00,,,0.00,WUHU21623XXSP,2013-01-06 00:36:00,
2013-01-05 16:42:00,45.0,36.8,29.98,ESE,112,0.0,0.0,73,0.00,,,0.00,WUHU21623XXSP,2013-01-06 00:42:00,
2013-01-05 16:47:00,45.0,37.1,29.98,ESE,112,0.0,0.0,74,0.00,,,0.00,WUHU21623XXSP,2013-01-06 00:47:00,
2013-01-05 16:52:00,44.8,37.0,29.97,ESE,112,0.0,0.0,74,0.00,,,0.00,WUHU21623XXSP,2013-01-06 00:52:00,
2013-01-05 16:57:00,44.6,37.1,29.97,ESE,112,0.0,0.0,75,0.00,,,0.00,WUHU21623XXSP,2013-01-06 00:57:00,
2013-01-05 17:03:00,44.4,36.6,29.97,ESE,112,0.0,0.0,74,0.00,,,0.00,WUHU21623XXSP,2013-01-06 01:03:00,
2013-01-05 17:08:00,44.4,37.0,29.97,ESE,112,0.0,0.0,75,0.00,,,0.00,WUHU21623XXSP,2013-01-06 01:08:00,
2013-01-05 17:13:00,44.4,37.0,29.97,ESE,112,0.0,0.0,75,0.00,,,0.00,WUHU21623XXSP,2013-01-06 01:13:00,
2013-01-05 17:18:00,44.4,37.0,29.97,ESE,112,0.0,0.0,75,0.00,,,0.00,WUHU21623XXSP,2013-01-06 01:18:00,
2013-01-05 17:23:00,44.4,37.0,29.96,ESE,112,0.0,0.0,75,0.00,,,0.00,WUHU21623XXSP,2013-01-06 01:23:00,
2013-01-05 17:29:00,44.2,36.8,29.97,ESE,112,0.0,0.0,75,0.00,,,0.00,WUHU21623XXSP,2013-01-06 01:29:00,
2013-01-05 17:34:00,44.2,36.8,29.97,ESE,112,0.0,0.0,75,0.00,,,0.00,WUHU21623XXSP,2013-01-06 01:34:00,
2013-01-05 17:39:00,44.1,36.6,29.97,ESE,112,0.0,0.0,75,0.00,,,0.00,WUHU21623XXSP,2013-01-06 01:39:00,
2013-01-05 17:44:00,43.7,36.6,29.97,ESE,112,0.0,0.0,76,0.00,,,0.00,WUHU21623XXSP,2013-01-06 01:44:00,
2013-01-05 17:50:00,43.5,36.4,29.97,ESE,112,0.0,0.0,76,0.00,,,0.00,WUHU21623XXSP,2013-01-06 01:50:00,
2013-01-05 17:55:00,43.3,36.2,29.98,ESE,112,0.0,0.0,76,0.00,,,0.00,WUHU21623XXSP,2013-01-06 01:55:00,
2013-01-05 18:00:00,43.2,36.1,29.98,ESE,112,0.0,0.0,76,0.00,,,0.00,WUHU21623XXSP,2013-01-06 02:00:00,
2013-01-05 18:05:00,43.0,36.2,29.98,ESE,112,0.0,0.0,77,0.00,,,0.00,WUHU21623XXSP,2013-01-06 02:05:00,
2013-01-05 18:11:00,42.6,35.9,29.98,ESE,112,0.0,0.0,77,0.00,,,0.00,WUHU21623XXSP,2013-01-06 02:11:00,
2013-01-05 18:16:00,42.6,36.2,29.98,ESE,112,0.0,0.0,78,0.00,,,0.00,WUHU21623XXSP,2013-01-06 02:16:00,
2013-01-05 18:21:00,42.4,36.0,29.98,ESE,112,0.0,0.0,78,0.00,,,0.00,WUHU21623XXSP,2013-01-06 02:21:00,
2013-01-05 18:26:00,42.4,36.0,29.98,ESE,112,0.0,0.0,78,0.00,,,0.00,WUHU21623XXSP,2013-01-06 02:26:00,
2013-01-05 18:31:00,42.4,36.4,29.98,ESE,112,0.0,0.0,79,0.00,,,0.00,WUHU21623XXSP,2013-01-06 02:31:00,
2013-01-05 18:37:00,42.4,36.4,29.98,ESE,112,0.0,0.0,79,0.00,,,0.00,WUHU21623XXSP,2013-01-06 02:37:00,
2013-01-05 18:42:00,42.4,36.4,29.98,ESE,112,0.0,0.0,79,0.00,,,0.00,WUHU21623XXSP,2013-01-06 02:42:00,
2013-01-05 18:47:00,42.4,36.4,29.98,ESE,112,0.0,0.0,79,0.00,,,0.00,WUHU21623XXSP,2013-01-06 02:47:00,
2013-01-05 18:52:00,42.1,36.0,29.98,ESE,112,0.0,0.0,79,0.00,,,0.00,WUHU21623XXSP,2013-01-06 02:52:00,
2013-01-05 18:58:00,42.1,36.3,29.99,ESE,112,0.0,0.0,80,0.00,,,0.00,WUHU21623XXSP,2013-01-06 02:58:00,
2013-01-05 19:03:00,42.1,36.3,29.99,ESE,112,0.0,0.0,80,0.00,,,0.00,WUHU21623XXSP,2013-01-06 03:03:00,
2013-01-05 19:08:00,41.9,36.4,29.98,ESE,112,0.0,0.0,81,0.00,,,0.00,WUHU21623XXSP,2013-01-06 03:08:00,
2013-01-05 19:13:00,41.9,36.4,29.99,ESE,112,0.0,0.0,81,0.00,,,0.00,WUHU21623XXSP,2013-01-06 03:13:00,
2013-01-05 19:19:00,41.7,36.3,29.98,ESE,112,0.0,0.0,81,0.00,,,0.00,WUHU21623XXSP,2013-01-06 03:19:00,
2013-01-05 19:24:00,41.7,36.3,29.98,ESE,112,0.0,0.0,81,0.00,,,0.00,WUHU21623XXSP,2013-01-06 03:24:00,
2013-01-05 19:29:00,41.9,36.4,29.98,ESE,112,0.0,0.0,81,0.00,,,0.00,WUHU21623XXSP,2013-01-06 03:29:00,
2013-01-05 19:34:00,42.1,36.6,29.98,ESE,112,0.0,0.0,81,0.00,,,0.00,WUHU21623XXSP,2013-01-06 03:34:00,
2013-01-05 19:40:00,42.1,36.6,29.97,ESE,112,0.0,0.0,81,0.00,,,0.00,WUHU21623XXSP,2013-01-06 03:40:00,
2013-01-05 19:45:00,42.1,36.6,29.97,ESE,112,0.0,0.0,81,0.00,,,0.00,WUHU21623XXSP,2013-01-06 03:45:00,
2013-01-05 19:50:00,42.1,36.6,29.97,ESE,112,0.0,0.0,81,0.00,,,0.00,WUHU21623XXSP,2013-01-06 03:50:00,
2013-01-05 19:55:00,42.1,36.6,29.98,ESE,112,0.0,0.0,81,0.00,,,0.00,WUHU21623XXSP,2013-01-06 03:55:00,
2013-01-05 20:00:00,42.3,36.8,29.98,ESE,112,0.0,0.0,81,0.00,,,0.00,WUHU21623XXSP,2013-01-06 04:00:00,
2013-01-05 20:06:00,42.1,36.6,29.98,ESE,112,0.0,0.0,81,0.00,,,0.00,WUHU21623XXSP,2013-01-06 04:06:00,
2013-01-05 20:11:00,42.1,36.6,29.98,ESE,112,0.0,0.0,81,0.00,,,0.00,WUHU21623XXSP,2013-01-06 04:11:00,
2013-01-05 20:16:00,42.3,36.8,29.98,ESE,112,0.0,0.0,81,0.00,,,0.00,WUHU21623XXSP,2013-01-06 04:16:00,
2013-01-05 20:21:00,42.1,36.6,29.98,ESE,112,0.0,0.0,81,0.00,,,0.00,WUHU21623XXSP,2013-01-06 04:21:00,
2013-01-05 20:27:00,42.3,37.1,29.98,ESE,112,0.0,0.0,82,0.00,,,0.00,WUHU21623XXSP,2013-01-06 04:27:00,
2013-01-05 20:32:00,42.1,36.6,29.98,ESE,112,0.0,0.0,81,0.00,,,0.00,WUHU21623XXSP,2013-01-06 04:32:00,
2013-01-05 20:37:00,42.1,36.6,29.98,ESE,112,0.0,0.0,81,0.00,,,0.00,WUHU21623XXSP,2013-01-06 04:37:00,
2013-01-05 20:42:00,42.1,36.9,29.98,ESE,112,0.0,0.0,82,0.00,,,0.00,WUHU21623XXSP,2013-01-06 04:42:00,
2013-01-05 20:48:00,42.1,36.9,29.99,ESE,112,0.0,0.0,82,0.00,,,0.00,WUHU21623XXSP,2013-01-06 04:48:00,
2013-01-05 20:53:00,42.1,36.9,29.99,ESE,112,0.0,0.0,82,0.00,,,0.00,WUHU21623XXSP,2013-01-06 04:53:00,
2013-01-05 20:58:00,42.1,36.9,29.99,ESE,112,0.0,0.0,82,0.00,,,0.00,WUHU21623XXSP,2013-01-06 04:58:00,
2013-01-05 21:03:00,42.4,37.6,29.99,ESE,112,0.0,0.0,83,0.00,,,0.00,WUHU21623XXSP,2013-01-06 05:03:00,
2013-01-05 21:09:00,42.4,37.6,29.99,ESE,112,0.0,0.0,83,0.00,,,0.00,WUHU21623XXSP,2013-01-06 05:09:00,
2013-01-05 21:14:00,42.4,37.6,29.99,ESE,112,0.0,0.0,83,0.00,,,0.00,WUHU21623XXSP,2013-01-06 05:14:00,
2013-01-05 21:19:00,42.1,37.5,29.99,ESE,112,0.0,0.0,84,0.00,,,0.00,WUHU21623XXSP,2013-01-06 05:19:00,
2013-01-05 21:24:00,42.4,37.9,29.99,ESE,112,0.0,0.0,84,0.00,,,0.00,WUHU21623XXSP,2013-01-06 05:24:00,
2013-01-05 21:29:00,42.3,37.7,29.99,ESE,112,0.0,0.0,84,0.00,,,0.00,WUHU21623XXSP,2013-01-06 05:29:00,
2013-01-05 21:35:00,42.3,37.7,30.00,ESE,112,0.0,0.0,84,0.00,,,0.00,WUHU21623XXSP,2013-01-06 05:35:00,
2013-01-05 21:40:00,42.1,37.5,30.00,ESE,112,0.0,0.0,84,0.00,,,0.00,WUHU21623XXSP,2013-01-06 05:40:00,
2013-01-05 21:45:00,42.1,37.9,30.00,ESE,112,0.0,0.0,85,0.00,,,0.00,WUHU21623XXSP,2013-01-06 05:45:00,
2013-01-05 21:50:00,42.1,37.5,30.00,ESE,112,0.0,0.0,84,0.00,,,0.00,WUHU21623XXSP,2013-01-06 05:50:00,
2013-01-05 21:56:00,42.1,37.9,30.00,ESE,112,0.0,0.0,85,0.00,,,0.00,WUHU21623XXSP,2013-01-06 05:56:00,
2013-01-05 22:01:00,42.3,38.0,30.00,ESE,112,0.0,0.0,85,0.00,,,0.00,WUHU21623XXSP,2013-01-06 06:01:00,
2013-01-05 22:06:00,42.1,37.9,30.00,ESE,112,0.0,0.0,85,0.00,,,0.00,WUHU21623XXSP,2013-01-06 06:06:00,
2013-01-05 22:11:00,42.4,38.2,30.00,SE,135,0.0,0.0,85,0.00,,,0.00,WUHU21623XXSP,2013-01-06 06:11:00,
2013-01-05 22:17:00,42.3,38.0,30.00,SSE,157,1.6,1.6,85,0.00,,,0.00,WUHU21623XXSP,2013-01-06 06:17:00,
2013-01-05 22:22:00,42.1,38.2,30.00,SSE,157,2.2,2.2,86,0.00,,,0.00,WUHU21623XXSP,2013-01-06 06:22:00,
2013-01-05 22:27:00,42.1,38.2,30.00,SE,135,0.0,2.7,86,0.00,,,0.00,WUHU21623XXSP,2013-01-06 06:27:00,
2013-01-05 22:32:00,42.1,38.2,30.00,SE,135,3.1,3.1,86,0.00,,,0.00,WUHU21623XXSP,2013-01-06 06:32:00,
2013-01-05 22:38:00,41.9,38.0,29.99,ESE,112,0.0,3.4,86,0.00,,,0.00,WUHU21623XXSP,2013-01-06 06:38:00,
2013-01-05 22:43:00,41.9,38.0,30.00,SE,135,0.0,3.4,86,0.00,,,0.00,WUHU21623XXSP,2013-01-06 06:43:00,
2013-01-05 22:48:00,41.7,37.8,29.99,SE,135,0.0,0.0,86,0.00,,,0.00,WUHU21623XXSP,2013-01-06 06:48:00,
2013-01-05 22:53:00,41.5,37.6,30.00,SE,135,0.0,3.1,86,0.00,,,0.00,WUHU21623XXSP,2013-01-06 06:53:00,
2013-01-05 22:59:00,41.5,37.6,30.00,SE,135,2.7,3.8,86,0.00,,,0.00,WUHU21623XXSP,2013-01-06 06:59:00,
2013-01-05 23:04:00,41.5,37.6,30.00,SSE,157,6.0,6.0,86,0.00,,,0.00,WUHU21623XXSP,2013-01-06 07:04:00,
2013-01-05 23:09:00,41.5,37.9,30.00,SE,135,2.9,6.0,87,0.00,,,0.00,WUHU21623XXSP,2013-01-06 07:09:00,
2013-01-05 23:14:00,41.4,37.7,30.00,ESE,112,0.0,3.4,87,0.00,,,0.00,WUHU21623XXSP,2013-01-06 07:14:00,
2013-01-05 23:19:00,41.4,37.7,30.00,SSE,157,4.5,4.5,87,0.00,,,0.00,WUHU21623XXSP,2013-01-06 07:19:00,
2013-01-05 23:25:00,41.4,37.7,30.00,ESE,112,0.0,4.5,87,0.00,,,0.00,WUHU21623XXSP,2013-01-06 07:25:00,
2013-01-05 23:30:00,41.4,37.7,30.00,ESE,112,0.0,3.4,87,0.00,,,0.00,WUHU21623XXSP,2013-01-06 07:30:00,
2013-01-05 23:35:00,41.4,37.7,30.00,SE,135,1.6,3.6,87,0.00,,,0.00,WUHU21623XXSP,2013-01-06 07:35:00,
2013-01-05 23:40:00,41.4,37.7,30.00,ESE,112,0.0,3.6,87,0.00,,,0.00,WUHU21623XXSP,2013-01-06 07:40:00,
2013-01-05 23:46:00,41.4,37.7,30.00,SE,135,0.0,2.7,87,0.00,,,0.00,WUHU21623XXSP,2013-01-06 07:46:00,
2013-01-05 23:51:00,41.4,38.0,30.00,SE,135,1.1,1.1,88,0.00,,,0.00,WUHU21623XXSP,2013-01-06 07:51:00,
2013-01-05 23:56:00,41.4,38.0,30.01,SSE,157,0.0,1.1,88,0.00,,,0.00,WUHU21623XXSP,2013-01-06 07:56:00,